FW6194 Weather Reports


Display with metric or nautical units.
time (UTC)temp
F
wind
direction
speed
MPH
gust
MPH
rain 1hr
in
rain 24hr
in
rain mn
in
humidity
%
barometer
mb
20260504173012 68 166 0.0 3.0 0.00 0.00 0.00 47 1010.2
20260504171508 66 232 1.0 4.0 0.00 0.00 0.00 49 1010.2
20260504081557 49 304 0.0 0.0 0.00 0.00 0.00 72 1010.2
20260504044539 63 90 0.0 2.0 0.00 0.00 0.00 50 1010.2
20260504043042 64 90 0.0 2.0 0.00 0.00 0.00 46 1010.2
20260504041537 66 90 1.0 6.0 0.00 0.00 0.00 44 1010.2
20260504040037 66 101 1.0 3.0 0.00 0.00 0.00 46 1010.2
20260504034535 66 101 1.0 4.0 0.00 0.00 0.00 45 1010.2
20260504033034 67 24 2.0 4.0 0.00 0.00 0.00 47 1010.2
20260504031535 69 128 3.0 4.0 0.00 0.00 0.00 42 1010.2
20260504030033 71 167 3.0 4.0 0.00 0.00 0.00 39 1010.2
20260504024534 73 167 1.0 3.0 0.00 0.00 0.00 38 1010.2
20260504023035 76 167 1.0 3.0 0.00 0.00 0.00 38 1010.2
20260504021530 78 167 1.0 3.0 0.00 0.00 0.00 37 1010.2
20260504020029 81 167 1.0 3.0 0.00 0.00 0.00 31 1010.2
20260504014537 82 237 0.0 3.0 0.00 0.00 0.00 33 1010.2
20260504013036 82 207 1.0 3.0 0.00 0.00 0.00 28 1010.2
20260504011527 81 244 2.0 5.0 0.00 0.00 0.00 29 1010.2
20260504010026 82 194 3.0 9.0 0.00 0.00 0.00 25 1010.2
20260504004531 81 248 3.0 8.0 0.00 0.00 0.00 29 1010.2
20260504003024 81 250 2.0 9.0 0.00 0.00 0.00 26 1010.2
20260504001524 82 250 3.0 7.0 0.00 0.00 0.00 29 1010.2
20260504000023 81 92 1.0 4.0 0.00 0.00 0.00 23 1010.2
20260503234522 81 240 3.0 7.0 0.00 0.00 0.00 27 1010.2
20260503233022 82 194 1.0 7.0 0.00 0.00 0.00 25 1010.2
20260503231520 82 273 1.0 6.0 0.00 0.00 0.00 25 1010.2
20260503230017 82 216 1.0 8.0 0.00 0.00 0.00 27 1010.2
20260503224516 81 180 2.0 9.0 0.00 0.00 0.00 24 1010.2
20260503223015 80 309 3.0 10.0 0.00 0.00 0.00 24 1010.2
20260503221513 80 261 1.0 8.0 0.00 0.00 0.00 29 1010.2
20260503220012 79 275 3.0 13.0 0.00 0.00 0.00 26 1010.2
20260503214511 79 221 6.0 13.0 0.00 0.00 0.00 26 1010.2
20260503213010 79 292 2.0 9.0 0.00 0.00 0.00 27 1010.2
20260503211510 79 234 6.0 13.0 0.00 0.00 0.00 27 1010.2
20260503210007 78 235 5.0 11.0 0.00 0.00 0.00 26 1010.2
20260503204503 77 335 2.0 11.0 0.00 0.00 0.00 29 1010.2
20260503203006 76 278 5.0 11.0 0.00 0.00 0.00 28 1010.2
20260503201601 76 111 1.0 9.0 0.00 0.00 0.00 27 1010.2
20260503200106 76 196 2.0 9.0 0.00 0.00 0.00 29 1010.2
20260503194557 75 209 5.0 9.0 0.00 0.00 0.00 30 1010.2
20260503193056 75 237 5.0 12.0 0.00 0.00 0.00 29 1010.2
20260503191554 74 223 6.0 12.0 0.00 0.00 0.00 30 1010.2
20260503190058 74 300 6.0 14.0 0.00 0.00 0.00 29 1010.2
20260503184547 73 309 2.0 10.0 0.00 0.00 0.00 33 1010.2
20260503183044 70 237 4.0 7.0 0.00 0.00 0.00 41 1010.2
20260503181541 68 108 2.0 5.0 0.00 0.00 0.00 44 1010.2
20260503180037 67 244 1.0 6.0 0.00 0.00 0.00 44 1010.2
20260503174532 66 224 1.0 4.0 0.00 0.00 0.00 49 1010.2